Location: Saluda
(35.2377°N, 82.3468°W)
Time: 05:32:25
(UTC+00:00)

Vanguard 2 - Pass Details

Date: 07 October 2022
Orbit: 553 x 2933 km, 32.9° (Epoch: 04 December)

Event Time Altitude Azimuth Distance (km) Brightness Sun altitude
Rises 15:50:21 0° 223° (SW) 3,605 11.1 44.3°
Reaches altitude 10° 15:52:40 10° 216° (SW) 2,895 10.8 44.5°
Maximum altitude 15:59:27 42° 147° (SSE) 2,006 12.8 45.2°
Drops below altitude 10° 16:10:20 10° 83° (E) 4,637 11.8 46.2°
Sets 16:15:05 0° 78° (ENE) 6,009 12.2 46.6°
